User: anonymous   Login
Location: Mississauga
(43.5802°N, 79.6166°W)
Time: 09:50:00
(UTC-04:00)
Language:

Cosmos 1437 Rocket - Orbit

View from above orbital plane
View from above orbital plane
View from above satellite
View from above satellite

Ground track
Ground track

The orbit data is extracted from the following two-line orbital elements,

1 13771U 83003B   16236.80269866  .00000350  00000-0  20036-4 0  9999
2 13771  81.1640 345.8303 0039141 272.5356  87.1388 15.09483120828922
Epoch (UTC): 23 August 2016 19:15:53
Eccentricity: 0.0039141
inclination: 81.1640°
perigee height: 511 km
apogee height: 565 km
right ascension of ascending node: 345.8303°
argument of perigee: 272.5356°
revolutions per day: 15.09483120
mean anomaly at epoch: 87.1388°
orbit number at epoch: 82892

The dashed part of the orbit path shows where the satellite is in the earth's shadow,  

DLR